#timestamp,LO_Frequency,Hit,StdDev 
1507705215.9,286046996.5,N
1507705235.7,286046998.0,N
1507705255.5,286046997.5,N
1507705275.4,286046996.7,N
1507705295.2,286046998.2,N
1507705315.0,286047001.2,N
1507705315.9,286047001.2,N
1507705335.8,286046998.7,N
1507705355.6,286046996.6,N
1507705375.5,286046999.6,N
1507705395.3,286046996.5,N
1507705415.1,286046996.5,N
1507705435.9,286046998.4,N
1507705455.7,286046999.1,N
1507705475.5,286046998.2,N
1507705495.4,286046998.5,N
1507705515.2,286046997.3,N
1507705535.1,286046994.9,Y
1507705536.0,286046994.9,P
1507705555.8,286046996.9,N
1507705575.6,286046999.1,N
1507705595.5,286046997.8,N
1507705615.3,286046999.6,N
1507705635.1,286046996.9,N
1507705655.9,286046999.1,N
1507705675.7,286046996.6,N
1507705695.6,286046999.1,N
1507705715.4,286046997.1,N
1507705735.3,286046997.6,N
1507705755.1,286046997.0,N
1507705756.0,286046997.0,N
1507705775.8,286046995.5,Y
1507705795.7,286046996.5,P
1507705815.5,286046998.7,N
1507705835.4,286046998.3,N
1507705855.2,286046999.8,N
1507705875.0,286047000.1,N
1507705875.9,286047000.1,N
1507705895.8,286047001.0,N
1507705915.6,286046998.2,N
1507705935.4,286046998.5,N
1507705955.3,286047000.0,N
1507705975.1,286047000.4,N
1507705995.9,286047000.1,N
1507706015.7,286047000.0,N
1507706035.5,286047000.3,N
1507706055.4,286046998.2,N
1507706075.2,286046998.7,N
1507706095.0,286046998.7,N
1507706096.0,286046998.7,N
1507706115.8,286047001.1,N
1507706135.6,286046998.1,N
1507706155.5,286046998.5,N
1507706175.3,286046996.9,N
1507706195.1,286046996.8,N
1507706215.9,286046997.4,N
1507706235.7,286046999.1,N
1507706255.6,286046999.6,N
1507706275.4,286046998.0,N
1507706295.2,286046997.4,N
1507706315.1,286046996.7,N
1507706316.0,286046996.7,N
1507706335.8,286046996.6,N
1507706355.7,286046999.2,N
1507706375.5,286046997.4,N
1507706395.3,286046997.3,N
1507706415.2,286046997.5,N
1507706435.0,286046994.9,Y
1507706435.9,286046994.9,P
1507706455.8,286046997.1,N
1507706475.6,286046997.0,N
1507706495.4,286046998.9,N
1507706515.3,286046999.0,N
1507706535.1,286046996.5,N
1507706555.8,286046999.4,N
1507706575.7,286046999.1,N
1507706595.5,286047001.1,N
1507706615.4,286046999.0,N
1507706635.2,286046999.0,N
1507706655.0,286046998.6,N
1507706655.9,286046998.6,N
1507706675.8,286047001.1,N
1507706695.6,286046996.9,N
1507706715.4,286046996.5,N
1507706735.3,286046996.6,N
1507706755.1,286046996.8,N
1507706775.9,286046999.1,N
1507706795.7,286046994.9,Y
1507706815.5,286046999.4,P
1507706835.4,286046996.5,P
1507706855.2,286046998.4,N
1507706875.1,286046998.3,N
1507706876.0,286046998.3,N
1507706895.8,286047001.2,N
1507706915.6,286046999.1,N
1507706935.5,286046999.6,N
1507706955.3,286046999.6,N
1507706975.1,286046999.0,N
1507706995.9,286046999.5,N
1507707015.7,286046999.0,N
1507707035.6,286046998.9,N
1507707055.4,286046996.6,Y
1507707075.2,286046998.6,P
1507707095.1,286047000.5,N
1507707096.0,286047000.5,N
1507707115.8,286047002.7,Y
1507707135.6,286047002.2,P
1507707155.5,286047001.4,N
1507707175.3,286047004.0,P
1507707195.2,286047004.3,N
1507707215.9,286047002.6,N
1507707235.7,286046999.9,N
1507707255.6,286047000.1,N
1507707275.4,286046999.7,N
1507707295.2,286047000.6,N
1507707315.1,286047000.6,N
1507707316.0,286047000.6,N
1507707335.8,286047001.0,N
1507707355.7,286046998.1,N
1507707375.5,286047000.0,N
1507707395.3,286047000.2,N
1507707415.2,286047002.0,N
1507707435.0,286047002.1,N
1507707435.9,286047002.1,N
1507707455.8,286047002.0,N
1507707475.6,286047001.7,N
1507707495.4,286046999.8,N
1507707515.3,286047000.6,N
1507707535.1,286046998.2,N
1507707555.8,286046999.1,N
1507707575.7,286046999.6,N
1507707595.5,286046998.4,N
1507707615.4,286047000.7,N
1507707635.2,286047000.4,N
1507707655.0,286047004.4,N
1507707655.9,286047004.4,N
1507707675.8,286047001.7,N
1507707695.6,286047001.3,N
1507707715.4,286047002.2,N
1507707735.3,286047001.8,N
1507707755.1,286047001.3,N
1507707775.9,286047001.5,N
1507707795.7,286047002.4,N
1507707815.5,286047000.4,N
1507707835.4,286047000.0,N
1507707855.2,286047000.8,N
1507707875.0,286047001.1,N
1507707875.9,286047001.1,N
1507707895.8,286046998.5,N
1507707915.6,286046999.0,N
1507707935.5,286047000.8,N
1507707955.3,286047000.4,N
1507707975.1,286047002.3,N
1507707995.9,286047001.3,N
1507708015.7,286047001.9,N
1507708035.6,286047002.5,N
1507708055.4,286047002.5,N
1507708075.2,286047004.4,N
1507708095.1,286047003.7,N
1507708096.0,286047003.7,N
1507708115.8,286047001.9,N
1507708135.7,286046999.8,N
1507708155.5,286047000.6,N
1507708175.3,286047000.2,N
1507708195.2,286047000.4,N
1507708215.0,286046999.7,N
1507708215.9,286046999.7,N
1507708235.8,286047000.0,N
1507708255.6,286047001.5,N
1507708275.4,286047001.4,N
1507708295.3,286047001.3,N
1507708315.1,286047003.2,N
1507708335.8,286047003.5,N
1507708355.7,286047006.0,Y
1507708375.5,286047003.0,P
1507708395.4,286047003.0,P
1507708415.2,286047003.7,P
1507708435.0,286047003.4,Y
1507708435.9,286047003.4,P
1507708455.8,286046999.7,N
1507708475.6,286047002.8,N
1507708495.4,286047000.1,N
1507708515.3,286047000.9,N
1507708535.1,286046999.9,N
1507708555.9,286047002.1,N
1507708575.7,286047001.6,N
1507708595.5,286047001.6,N
1507708615.4,286047002.6,N
1507708635.2,286047002.5,N
1507708655.0,286047002.6,N
1507708656.0,286047002.6,N
1507708675.8,286046999.7,N
1507708695.6,286047002.2,N
1507708715.5,286047002.4,N
1507708735.3,286047000.9,N
1507708755.1,286046998.5,N
1507708775.9,286046998.2,N
1507708795.7,286047001.2,N
